TimeCDT,TemperatureF,Dew PointF,Humidity,Sea Level PressureIn,VisibilityMPH,Wind Direction,Wind SpeedMPH,Gust SpeedMPH,PrecipitationIn,Events,Conditions,WindDirDegrees,DateUTC
12:14 AM,67.8,64.6,89,29.91,10.0,South,5.8,-,N/A,,Clear,180,2013-08-31 05:14:00
12:34 AM,68.7,64.4,86,29.93,10.0,SSW,5.8,-,N/A,,Clear,210,2013-08-31 05:34:00
12:54 AM,68.9,64.4,86,29.92,10.0,South,6.9,-,N/A,,Clear,180,2013-08-31 05:54:00
1:14 AM,68.9,64.0,84,29.92,10.0,SSW,4.6,-,N/A,,Clear,200,2013-08-31 06:14:00
1:34 AM,68.0,64.0,87,29.91,10.0,SSW,5.8,-,N/A,,Clear,200,2013-08-31 06:34:00
1:54 AM,68.4,64.0,86,29.91,10.0,SW,3.5,-,N/A,,Clear,220,2013-08-31 06:54:00
2:14 AM,66.6,63.1,89,29.91,10.0,Calm,Calm,-,N/A,,Clear,0,2013-08-31 07:14:00
2:34 AM,65.8,63.3,92,29.91,10.0,Calm,Calm,-,N/A,,Clear,0,2013-08-31 07:34:00
2:53 AM,63.3,61.5,94,29.91,10.0,Calm,Calm,-,N/A,,Clear,0,2013-08-31 07:53:00
3:14 AM,62.8,61.2,94,29.91,10.0,Calm,Calm,-,N/A,,Clear,0,2013-08-31 08:14:00
3:34 AM,63.5,62.1,95,29.91,10.0,Calm,Calm,-,N/A,,Clear,0,2013-08-31 08:34:00
3:54 AM,61.9,60.8,96,29.91,10.0,Calm,Calm,-,N/A,,Clear,0,2013-08-31 08:54:00
4:14 AM,61.0,59.9,96,29.91,10.0,Calm,Calm,-,N/A,,Clear,0,2013-08-31 09:14:00
4:34 AM,62.6,61.7,97,29.91,10.0,Calm,Calm,-,N/A,,Clear,0,2013-08-31 09:34:00
4:53 AM,60.3,59.2,96,29.93,10.0,WNW,4.6,-,N/A,,Clear,300,2013-08-31 09:53:00
5:14 AM,61.2,60.3,97,29.90,7.0,Calm,Calm,-,N/A,,Clear,0,2013-08-31 10:14:00
5:34 AM,61.7,61.0,97,29.89,10.0,Calm,Calm,-,N/A,,Clear,0,2013-08-31 10:34:00
5:54 AM,60.8,59.9,97,29.87,10.0,SSE,5.8,-,N/A,,Clear,150,2013-08-31 10:54:00
6:14 AM,61.3,60.4,97,29.85,10.0,SSW,3.5,-,N/A,,Clear,200,2013-08-31 11:14:00
6:34 AM,64.2,63.0,96,29.85,10.0,SW,4.6,-,N/A,,Clear,220,2013-08-31 11:34:00
6:54 AM,64.4,62.8,94,29.84,10.0,SSW,5.8,-,N/A,,Clear,210,2013-08-31 11:54:00
7:14 AM,67.6,64.4,89,29.83,10.0,South,10.4,-,N/A,,Clear,190,2013-08-31 12:14:00
7:34 AM,68.2,63.9,86,29.82,10.0,South,9.2,-,N/A,,Clear,190,2013-08-31 12:34:00
7:54 AM,68.9,64.4,86,29.83,10.0,South,4.6,-,N/A,,Clear,180,2013-08-31 12:54:00
8:13 AM,69.6,64.8,84,29.84,10.0,Calm,Calm,-,N/A,,Clear,0,2013-08-31 13:13:00
8:34 AM,71.1,65.5,82,29.85,10.0,SW,5.8,-,N/A,,Clear,230,2013-08-31 13:34:00
8:54 AM,71.8,66.2,83,29.86,10.0,SW,8.1,-,N/A,,Clear,220,2013-08-31 13:54:00
9:14 AM,73.0,66.4,80,29.86,10.0,SW,5.8,-,N/A,,Clear,220,2013-08-31 14:14:00
9:33 AM,75.2,66.6,74,29.85,10.0,SSW,9.2,-,N/A,,Clear,210,2013-08-31 14:33:00
9:54 AM,76.6,66.9,72,29.86,10.0,SW,9.2,17.3,N/A,,Clear,230,2013-08-31 14:54:00
10:14 AM,77.4,67.1,71,29.86,10.0,SW,10.4,-,N/A,,Clear,230,2013-08-31 15:14:00
10:34 AM,79.0,67.1,67,29.86,10.0,WSW,5.8,-,N/A,,Clear,240,2013-08-31 15:34:00
10:53 AM,79.9,66.9,64,29.86,10.0,South,4.6,-,N/A,,Clear,180,2013-08-31 15:53:00
11:14 AM,81.5,66.6,60,29.85,10.0,SSW,3.5,-,N/A,,Clear,200,2013-08-31 16:14:00
11:34 AM,81.9,66.7,60,29.85,10.0,SSE,8.1,-,N/A,,Clear,160,2013-08-31 16:34:00
11:54 AM,82.4,66.7,59,29.84,10.0,South,6.9,-,N/A,,Clear,170,2013-08-31 16:54:00
12:14 PM,84.6,67.8,57,29.83,10.0,SSE,6.9,-,N/A,,Clear,150,2013-08-31 17:14:00
12:34 PM,85.1,65.5,52,29.83,10.0,SSE,5.8,-,N/A,,Clear,160,2013-08-31 17:34:00
12:54 PM,87.1,64.0,46,29.82,10.0,South,8.1,-,N/A,,Clear,180,2013-08-31 17:54:00
1:14 PM,87.6,64.2,46,29.82,10.0,SSW,9.2,-,N/A,,Clear,200,2013-08-31 18:14:00
1:34 PM,88.0,64.6,46,29.81,10.0,SSW,6.9,-,N/A,,Clear,210,2013-08-31 18:34:00
1:54 PM,89.6,61.7,39,29.80,10.0,WSW,11.5,-,N/A,,Clear,240,2013-08-31 18:54:00
2:14 PM,90.3,62.1,39,29.80,10.0,SSW,8.1,-,N/A,,Clear,210,2013-08-31 19:14:00
2:34 PM,90.7,63.7,41,29.80,10.0,SSW,9.2,-,N/A,,Clear,210,2013-08-31 19:34:00
2:54 PM,90.5,65.5,43,29.79,10.0,South,4.6,-,N/A,,Clear,180,2013-08-31 19:54:00
3:14 PM,91.4,64.6,41,29.79,10.0,SW,9.2,-,N/A,,Clear,220,2013-08-31 20:14:00
3:34 PM,92.1,64.2,39,29.78,10.0,SW,5.8,-,N/A,,Clear,230,2013-08-31 20:34:00
3:54 PM,92.7,64.8,40,29.78,10.0,West,13.8,17.3,N/A,,Clear,260,2013-08-31 20:54:00
4:14 PM,92.5,66.0,42,29.78,10.0,WSW,11.5,17.3,N/A,,Clear,240,2013-08-31 21:14:00
4:34 PM,92.3,66.6,43,29.77,10.0,WSW,8.1,-,N/A,,Clear,240,2013-08-31 21:34:00
4:54 PM,92.8,65.3,40,29.75,10.0,West,11.5,-,N/A,,Scattered Clouds,260,2013-08-31 21:54:00
5:13 PM,89.6,67.1,47,29.76,10.0,West,9.2,-,N/A,,Scattered Clouds,260,2013-08-31 22:13:00
5:34 PM,88.9,66.7,48,29.77,10.0,WNW,20.7,26.5,N/A,,Mostly Cloudy,300,2013-08-31 22:34:00
5:53 PM,84.9,65.5,52,29.78,10.0,NNW,18.4,32.2,N/A,,Overcast,340,2013-08-31 22:53:00
6:14 PM,82.9,60.4,46,29.75,10.0,NNW,13.8,24.2,N/A,,Scattered Clouds,340,2013-08-31 23:14:00
6:34 PM,81.5,63.9,55,29.79,10.0,NE,12.7,18.4,N/A,,Clear,50,2013-08-31 23:34:00
6:54 PM,76.1,66.9,73,29.81,10.0,East,6.9,-,N/A,,Clear,90,2013-08-31 23:54:00
7:14 PM,75.7,66.0,72,29.82,10.0,Calm,Calm,-,N/A,,Clear,0,2013-09-01 00:14:00
7:34 PM,74.8,65.5,73,29.82,10.0,SE,6.9,-,N/A,,Scattered Clouds,130,2013-09-01 00:34:00
7:54 PM,73.8,65.5,75,29.82,10.0,ESE,6.9,-,N/A,,Scattered Clouds,120,2013-09-01 00:54:00
8:14 PM,73.2,66.2,79,29.84,10.0,SE,3.5,-,N/A,,Clear,130,2013-09-01 01:14:00
8:34 PM,72.3,66.2,81,29.85,10.0,Calm,Calm,-,N/A,,Clear,0,2013-09-01 01:34:00
8:54 PM,71.4,66.2,84,29.85,10.0,Calm,Calm,-,N/A,,Clear,0,2013-09-01 01:54:00
9:14 PM,70.7,66.0,85,29.86,10.0,Calm,Calm,-,N/A,,Clear,0,2013-09-01 02:14:00
9:34 PM,71.6,65.8,82,29.86,10.0,South,3.5,-,N/A,,Clear,190,2013-09-01 02:34:00
9:54 PM,70.5,65.5,84,29.85,10.0,Calm,Calm,-,N/A,,Clear,0,2013-09-01 02:54:00
10:13 PM,69.6,65.3,86,29.84,10.0,Calm,Calm,-,N/A,,Scattered Clouds,0,2013-09-01 03:13:00
10:34 PM,69.3,65.8,89,29.84,10.0,NW,5.8,-,N/A,,Mostly Cloudy,310,2013-09-01 03:34:00
10:54 PM,70.2,64.2,81,29.84,10.0,WNW,6.9,-,N/A,,Scattered Clouds,300,2013-09-01 03:54:00
11:14 PM,70.2,63.3,79,29.85,10.0,NW,6.9,-,N/A,,Scattered Clouds,310,2013-09-01 04:14:00
11:34 PM,70.9,62.1,74,29.86,10.0,NW,8.1,-,N/A,,Mostly Cloudy,310,2013-09-01 04:34:00
11:54 PM,70.3,61.0,72,29.88,10.0,NW,6.9,-,N/A,,Scattered Clouds,310,2013-09-01 04:54:00